EN

Hourly Weather Iskra

Today, 30 September, Wednesday

Time Temperature Precipitation Wind Pressure Humidity
00:00 +10°C° 0 mm 0 mps 758 mmHg 88%
01:00 +10°C° 0 mm 0 mps 758 mmHg 89%
02:00 +9°C° 0 mm 0 mps 758 mmHg 89%
03:00 +9°C° 0 mm 0 mps 758 mmHg 90%
04:00 +9°C° 0 mm 0 mps 758 mmHg 91%
05:00 +9°C° 0 mm 0 mps 758 mmHg 91%
06:00 +9°C° 0 mm 0 mps 758 mmHg 91%
07:00 +9°C° 0 mm 0 mps 758 mmHg 91%
08:00 +10°C° 0 mm 0 mps 758 mmHg 84%
09:00 +12°C° 0 mm 0 mps 758 mmHg 78%
10:00 +14°C° 0 mm 0 mps 758 mmHg 71%
11:00 +15°C° 0 mm 0 mps 758 mmHg 68%
12:00 +16°C° 0 mm 0 mps 758 mmHg 64%
13:00 +17°C° 0 mm 0 mps 758 mmHg 60%
14:00 +17°C° 0 mm 0 mps 757 mmHg 62%
15:00 +19°C° 0 mm 1 mps 757 mmHg 63%
16:00 +19°C° 0 mm 1 mps 757 mmHg 64%
17:00 +16°C° 0 mm 1 mps 757 mmHg 71%
18:00 +14°C° 0 mm 1 mps 757 mmHg 77%
19:00 +13°C° 0 mm 1 mps 757 mmHg 84%
20:00 +12°C° 0 mm 1 mps 757 mmHg 85%
21:00 +12°C° 0 mm 1 mps 757 mmHg 86%
22:00 +11°C° 0 mm 1 mps 757 mmHg 88%
23:00 +11°C° 0 mm 1 mps 757 mmHg 88%

Tomorrow, 1 October, Thursday

Time Temperature Precipitation Wind Pressure Humidity
00:00 +10°C° 0 mm 1 mps 757 mmHg 88%
01:00 +10°C° 0 mm 1 mps 757 mmHg 88%
02:00 +10°C° 0 mm 1 mps 757 mmHg 88%
03:00 +9°C° 0 mm 1 mps 757 mmHg 89%
04:00 +9°C° 0 mm 1 mps 758 mmHg 89%
05:00 +9°C° 0 mm 1 mps 757 mmHg 89%
06:00 +8°C° 0 mm 0 mps 757 mmHg 89%
07:00 +8°C° 0 mm 0 mps 757 mmHg 89%
08:00 +10°C° 0 mm 0 mps 757 mmHg 83%
09:00 +12°C° 0 mm 1 mps 757 mmHg 76%
10:00 +14°C° 0 mm 1 mps 757 mmHg 70%
11:00 +15°C° 0 mm 0 mps 757 mmHg 65%
12:00 +16°C° 0 mm 0 mps 757 mmHg 61%
13:00 +17°C° 0 mm 0 mps 756 mmHg 57%
14:00 +17°C° 0 mm 0 mps 756 mmHg 58%
15:00 +17°C° 0 mm 0 mps 756 mmHg 58%
16:00 +16°C° 0 mm 0 mps 756 mmHg 59%
17:00 +15°C° 0 mm 0 mps 756 mmHg 65%
18:00 +13°C° 0 mm 0 mps 756 mmHg 70%
19:00 +11°C° 0 mm 0 mps 756 mmHg 76%
20:00 +11°C° 0 mm 0 mps 756 mmHg 78%
21:00 +10°C° 0 mm 0 mps 756 mmHg 80%
22:00 +10°C° 0 mm 0 mps 756 mmHg 82%
23:00 +10°C° 0 mm 0 mps 756 mmHg 83%

Day after tomorrow, 2 October, Friday

Time Temperature Precipitation Wind Pressure Humidity
00:00 +9°C° 0 mm 0 mps 756 mmHg 84%
01:00 +9°C° 0 mm 0 mps 756 mmHg 85%
02:00 +9°C° 0 mm 0 mps 756 mmHg 86%
03:00 +8°C° 0 mm 0 mps 756 mmHg 87%
04:00 +8°C° 0 mm 0 mps 756 mmHg 88%
05:00 +8°C° 0 mm 0 mps 756 mmHg 88%
06:00 +8°C° 0 mm 0 mps 756 mmHg 89%
07:00 +8°C° 0 mm 0 mps 756 mmHg 89%
08:00 +10°C° 0 mm 0 mps 756 mmHg 83%
09:00 +11°C° 0 mm 0 mps 756 mmHg 77%
10:00 +13°C° 0 mm 0 mps 756 mmHg 71%
11:00 +14°C° 0 mm 0 mps 755 mmHg 68%
12:00 +16°C° 0 mm 1 mps 755 mmHg 64%
13:00 +18°C° 0 mm 1 mps 755 mmHg 61%
14:00 +18°C° 0 mm 1 mps 755 mmHg 62%
15:00 +18°C° 0 mm 1 mps 755 mmHg 63%
16:00 +18°C° 0 mm 1 mps 754 mmHg 63%
17:00 +15°C° 0 mm 1 mps 754 mmHg 70%
18:00 +13°C° 0 mm 1 mps 754 mmHg 76%
19:00 +11°C° 0 mm 0 mps 754 mmHg 82%
20:00 +10°C° 0 mm 0 mps 754 mmHg 83%
21:00 +10°C° 0 mm 0 mps 754 mmHg 85%
22:00 +10°C° 0 mm 0 mps 754 mmHg 86%
23:00 +9°C° 0 mm 0 mps 754 mmHg 87%

3 October, Saturday

Time Temperature Precipitation Wind Pressure Humidity
00:00 +9°C° 0 mm 0 mps 754 mmHg 88%
01:00 +9°C° 0 mm 0 mps 754 mmHg 89%
02:00 +9°C° 0 mm 0 mps 754 mmHg 89%
03:00 +9°C° 0 mm 0 mps 754 mmHg 90%
04:00 +8°C° 0 mm 0 mps 754 mmHg 91%
05:00 +8°C° 0 mm 0 mps 754 mmHg 91%
06:00 +8°C° 0 mm 0 mps 754 mmHg 92%
07:00 +8°C° 0 mm 0 mps 754 mmHg 93%
08:00 +10°C° 0 mm 1 mps 754 mmHg 87%
09:00 +12°C° 0 mm 1 mps 754 mmHg 81%
10:00 +13°C° 0 mm 1 mps 753 mmHg 76%
11:00 +14°C° 0 mm 2 mps 753 mmHg 72%
12:00 +15°C° 0 mm 2 mps 753 mmHg 69%
13:00 +16°C° 0 mm 2 mps 753 mmHg 65%
14:00 +16°C° 0 mm 2 mps 753 mmHg 66%
15:00 +14°C° 0 mm 3 mps 753 mmHg 67%
16:00 +14°C° 0 mm 3 mps 753 mmHg 68%
17:00 +13°C° 0 mm 3 mps 753 mmHg 71%
18:00 +12°C° 0 mm 3 mps 754 mmHg 74%
19:00 +10°C° 0 mm 2 mps 754 mmHg 77%
20:00 +10°C° 0 mm 2 mps 754 mmHg 79%
21:00 +9°C° 0 mm 2 mps 754 mmHg 81%
22:00 +8°C° 0 mm 2 mps 755 mmHg 82%
23:00 +8°C° 0 mm 2 mps 755 mmHg 85%

4 October, Sunday

Time Temperature Precipitation Wind Pressure Humidity
00:00 +7°C° 0 mm 2 mps 755 mmHg 88%
01:00 +7°C° 0 mm 2 mps 755 mmHg 91%
02:00 +6°C° 0 mm 2 mps 755 mmHg 91%
03:00 +6°C° 0 mm 2 mps 755 mmHg 92%
04:00 +5°C° 0 mm 2 mps 755 mmHg 93%
05:00 +5°C° 0 mm 2 mps 756 mmHg 91%
06:00 +5°C° 0 mm 2 mps 756 mmHg 90%
07:00 +4°C° 0 mm 2 mps 756 mmHg 88%
08:00 +6°C° 0 mm 2 mps 756 mmHg 82%
09:00 +7°C° 0 mm 2 mps 757 mmHg 76%
10:00 +9°C° 0 mm 2 mps 757 mmHg 70%
11:00 +10°C° 0 mm 2 mps 757 mmHg 67%
12:00 +12°C° 0 mm 2 mps 757 mmHg 64%
13:00 +13°C° 0 mm 1 mps 757 mmHg 61%
14:00 +13°C° 0 mm 1 mps 757 mmHg 61%
15:00 +13°C° 0 mm 1 mps 757 mmHg 62%
16:00 +12°C° 0 mm 1 mps 757 mmHg 62%
17:00 +10°C° 0 mm 2 mps 757 mmHg 67%
18:00 +9°C° 0 mm 2 mps 757 mmHg 72%
19:00 +7°C° 0 mm 2 mps 757 mmHg 77%
20:00 +7°C° 0 mm 1 mps 757 mmHg 79%
21:00 +7°C° 0 mm 1 mps 757 mmHg 81%
22:00 +6°C° 0 mm 1 mps 757 mmHg 83%
23:00 +6°C° 0 mm 1 mps 757 mmHg 84%

5 October, Monday

Time Temperature Precipitation Wind Pressure Humidity
00:00 +6°C° 0 mm 1 mps 757 mmHg 85%
01:00 +5°C° 0 mm 1 mps 757 mmHg 86%
02:00 +4°C° 0 mm 0 mps 757 mmHg 87%
03:00 +4°C° 0 mm 0 mps 757 mmHg 88%
04:00 +3°C° 0 mm 0 mps 757 mmHg 89%
05:00 +3°C° 0 mm 0 mps 757 mmHg 89%
06:00 +3°C° 0 mm 0 mps 757 mmHg 89%
07:00 +3°C° 0 mm 0 mps 758 mmHg 89%
08:00 +4°C° 0 mm 0 mps 757 mmHg 81%
09:00 +7°C° 0 mm 1 mps 757 mmHg 73%
10:00 +8°C° 0 mm 1 mps 757 mmHg 66%
11:00 +9°C° 0 mm 1 mps 757 mmHg 61%
12:00 +10°C° 0 mm 1 mps 757 mmHg 56%
13:00 +10°C° 0 mm 2 mps 757 mmHg 51%
14:00 +10°C° 0 mm 2 mps 757 mmHg 50%
15:00 +10°C° 0 mm 2 mps 756 mmHg 50%
16:00 +11°C° 0 mm 1 mps 756 mmHg 49%
17:00 +9°C° 0 mm 1 mps 756 mmHg 54%
18:00 +8°C° 0 mm 1 mps 756 mmHg 58%
19:00 +6°C° 0 mm 1 mps 756 mmHg 62%
20:00 +6°C° 0 mm 1 mps 756 mmHg 64%
21:00 +5°C° 0 mm 1 mps 756 mmHg 66%
22:00 +3°C° 0 mm 0 mps 756 mmHg 68%
23:00 +3°C° 0 mm 0 mps 756 mmHg 70%
Show more

We Need Your Consent

Meteoprog and our Service Providers may store and access personal data such as cookies, device identifiers or other similar technologies on your device and process such data to personalise content and ads, as well as provide social media features and to analyse the traffic.

  • Store and/or access information on your device

    Cookies, device identifiers or other information can be stored or accessed on your device for the purposes indicated above.

  • Personalised ads and content, ad and content measurement, audience insights, and products development

    Ads and content can be personalised based on a profile. More data can be added to better personalise ads and content. Ad and content performance can be measured. Insights about the audience who saw the ads and content can be derived. Such data can be used to develop or improve user’s experience, systems and software.

By clicking ‘I Agree’ you will allow the use of indicated cookies, device identifiers, web beacons or other similar technologies. Your settings can be changed in the browser on your device.

For certain purposes, legitimate interests may be relied on, rather than consent. You can read more about this in our Privacy and Cookie Policy.